This is the latest recevied weather packets stored in our database for station/object N8TWM-13. If no packets are shown the sender has not sent any weather packets the latest 10 day(s).
| Time | Temp. | Humidity | Pressure | Rain* | Wind** | Luminosity | Snow |
|---|---|---|---|---|---|---|---|
| 1777087714 | 16.67° C | 95% | 1009 hPa | 0 mm | - | 0 W/m² | - |
| 1777087408 | 16.67° C | 95% | 1008.8 hPa | 0 mm | - | 0 W/m² | - |
| 1777087103 | 16.67° C | 95% | 1009 hPa | 0 mm | - | 0 W/m² | - |
| 1777086799 | 16.67° C | 95% | 1009.1 hPa | 0 mm | - | 0 W/m² | - |
| 1777086494 | 16.67° C | 95% | 1009.4 hPa | 0 mm | - | 0 W/m² | - |
| 1777086190 | 16.67° C | 95% | 1009.1 hPa | 1.78 mm | - | 0 W/m² | - |
| 1777085886 | 16.67° C | 95% | 1008.9 hPa | 1.78 mm | - | 0 W/m² | - |
| 1777085583 | 16.67° C | 95% | 1008.9 hPa | 0 mm | - | 0 W/m² | - |
| 1777085278 | 16.67° C | 95% | 1009.1 hPa | 1.27 mm | - | 0 W/m² | - |
| 1777084975 | 16.67° C | 95% | 1009.1 hPa | 3.05 mm | - | 0 W/m² | - |
| 1777084670 | 16.67° C | 95% | 1009.1 hPa | 1.78 mm | - | 0 W/m² | - |
| 1777084360 | 16.67° C | 95% | 1009 hPa | 1.27 mm | - | 0 W/m² | - |
| 1777084060 | 16.67° C | 94% | 1009.3 hPa | 1.27 mm | - | 0 W/m² | - |
| 1777083758 | 16.67° C | 94% | 1009.1 hPa | 0 mm | - | 0 W/m² | - |
| 1777083455 | 16.67° C | 94% | 1009 hPa | 0 mm | - | 0 W/m² | - |
| 1777083152 | 16.67° C | 94% | 1009 hPa | 0 mm | - | 0 W/m² | - |
| 1777082851 | 16.67° C | 94% | 1009.1 hPa | 6.6 mm | - | 0 W/m² | - |
| 1777082546 | 16.67° C | 94% | 1008.6 hPa | 18.54 mm | - | 0 W/m² | - |
| 1777082241 | 16.67° C | 94% | 1008.6 hPa | 25.91 mm | - | 0 W/m² | - |
| 1777081937 | 17.22° C | 94% | 1008.9 hPa | 21.59 mm | - | 0 W/m² | - |
| 1777081631 | 17.22° C | 93% | 1008.9 hPa | 14.99 mm | - | 0 W/m² | - |
| 1777081328 | 17.22° C | 93% | 1008.9 hPa | 10.67 mm | - | 0 W/m² | - |
| 1777081023 | 17.22° C | 93% | 1008.9 hPa | 10.67 mm | - | 0 W/m² | - |
* Rain latest hour (hover to see other rain measurements)
** Current wind speed in m/s (hover to see current wind gust speed)